Location: Strawberry
(45.6646°N, 111.9596°W)
Time: 21:53:04
(UTC+00:00)

Courier 1B Rocket - Pass Details

Date: 12 October 2022
Orbit: 920 x 1202 km, 28.3° (Epoch: 03 December)

Event Time Altitude Azimuth Distance (km) Brightness Sun altitude
Rises 23:55:14 0° 234° (SW) 4,021 9.9 8.3°
Reaches altitude 10° 23:59:04 10° 217° (SW) 3,017 8.7 7.6°
Maximum altitude 00:03:51 19° 176° (S) 2,379 7.3 6.8°
Drops below altitude 10° 00:08:28 10° 135° (SE) 2,884 7.2 6.1°
Sets 00:12:00 0° 118° (ESE) 3,782 7.6 5.5°
